OBJECT F, 65549

Orbit data source: Space-Track

You're viewing an Uncataloged Satellite

Recently launched and/or uncataloged satellites may have evolving metadata. Metadata may include but not limited to: Owner, Maufacturer, Bus, Motor, and Mission.

OBJECT F, 65549 is a satellite owned by CNSA (CN) in LEO that was launched on Sat, 06 Sep 2025 UTC launched from the Taiyaun Space Center, China (TSC). Unknown objects in Earth's orbit typically refer to objects detected orbiting the Earth but have not yet been identified or cataloged. These objects could be anything from previously untracked satellites, spent rocket stages, debris from satellite collisions, or even natural meteoroids temporarily captured by Earth's gravity.

Loading next visibility...
Identifier
65549, 2025-199F
Orbit
LEO
Country
Flag of CNCN / PRC
Related business
None
Manufacturer
SAST
Mission
Spacecraft
Bus & Motor
CZ-6A STAGE 2, YF-115
Mass
~6,000 kg wet, ~6,000 kg dry
Launch date (UTC)
2025-09-06 (2 weeks ago)
Launch vehicle
Unknown
Launch site
Taiyaun Space Center, China (TSC)
Object type
Unknown
Shape & HBR
Unknown
Radar Cross Section
Large (>1 m²)

Expand to show TLE details & history
Last TLE update: 15 hours ago

TLE from 15 hours ago
0 OBJECT F
1 65549U 25199F   25260.19494372  .00000487  00000-0  84909-4 0  9992
2 65549  86.0173 166.3027 0069770  35.5813 325.0021 14.64053574  1536
Epoch: 2025-09-17T04:40Z
TLE epoch observation values (Epoch: 2025-09-17T04:40:43.137Z)
Latitude
0.00002°
Longitude
99.74858°
Altitude
642.968 km
Speed
7.558 km/s
True Right ascension
11h 05m 12s
True Declination
0° 00' 00"
Sunlit
Object was in daylight at epoch
Visualization orbit readout
Latitude
Unknown
Longitude
Unknown
Altitude
Unknown
Speed
Unknown
Apparent Right ascension
Unknown
Apparent Declination
Unknown
Sunlit
N/A
Visualization observer readout
Local Sidereal Time
12:32:08
Azimuth
Unknown
Elevation
Unknown
Doppler factor
Unknown
Orbital elements
Apogee altitude
726.27 km
Perigee altitude
627.822 km
Semi-major axis
7,055.183 km
Eccentricity
0.00698
Inclination
86.0173°
RAAN
166.3027°
Arg. of periapsis
35.5813°
True anomaly
324.54025°
Mean anomaly
325.0021°
Eccentric anomaly
324.77151°
Mean motion
3.66253 °/min
Orbital period
98.29 mins
BSTAR
0.000084909
Loading maneuver chart data...
Computing Atmospheric mass density...
Loading historical data...
Loading historical data...
Loading historical data...
Loading historical data...
Loading historical data...
Loading historical data...
Loading historical data...
Other satellites on launch #199 in the year 2025 (2025-09-06 UTC)

Documentation

Showing up to 5 results
|